Tracking 25734 objects as of 27-May-2022
HD Live streaming from Space Station
objects crossing your sky now

STARLINK-1133

Track STARLINK-1133 now!
10-day predictions
STARLINK-1133 is classified as:


NORAD ID: 45064
Int'l Code: 2020-006W
Perigee: 553.3 km
Apogee: 555.5 km
Inclination: 53.1 °
Period: 95.6 minutes
Semi major axis: 6925 km
RCS: Unknown
Launch date: January 29, 2020
Source: United States (US)
Launch site: AIR FORCE EASTERN TEST RANGE (AFETR)
aabbcc
Your satellite tracking list
Your tracking list is empty




NASA's NSSDC Master Catalog

Two Line Element Set (TLE):
1 45064U 20006W   22146.29821454 -.00000697  00000-0 -27933-4 0  9999
2 45064  53.0560 356.9141 0001586  69.6483 290.4676 15.06391230128235
Source of the keplerian elements: AFSPC